Flight Track Log - Related Links

Times and Time Zones

All times are in EDT time to prevent confusion due to time zone crossing. See the SKW5535 flight status page for this flight to view local times or setup timezone preferences in your user account.

Time Position Orientation Groundspeed Altitude Reporting Facility
EDT Latitude Longitude Course Direction KTS MPH feet Rate Location/Type
03:22PM 46.9369 -114.1286 310° West 177 204 4,600  Level Salt Lake Center
03:23PM 46.9742 -114.1931 310° West 204 235 7,200 2,390 Climbing Salt Lake Center
03:24PM 46.9847 -114.2764 281° West 232 267 9,500 1,756 Climbing Salt Lake Center
03:25PM 46.9194 -114.2714 177° South 267 307 10,800 1,500 Climbing Salt Lake Center
03:26PM 46.8367 -114.2256 159° South 299 344 12,600 1,742 Climbing Salt Lake Center
03:27PM 46.7550 -114.1850 161° South 311 358 14,400 1,548 Climbing Salt Lake Center
03:28PM 46.6769 -114.0972 142° Southeast 346 398 15,800 1,113 Climbing Salt Lake Center
03:29PM 46.6094 -113.9833 131° Southeast 370 426 16,700 1,065 Climbing Salt Lake Center
03:30PM 46.5353 -113.8539 130° Southeast 387 445 18,000 1,306 Climbing Salt Lake Center
03:31PM 46.4653 -113.7339 130° Southeast 390 449 19,400 1,355 Climbing Salt Lake Center
03:32PM 46.3953 -113.6122 130° Southeast 390 449 20,800 1,268 Climbing Salt Lake Center
03:33PM 46.3256 -113.4944 131° Southeast 387 445 22,000 1,171 Climbing Salt Lake Center
03:34PM 46.2558 -113.3769 131° Southeast 386 444 23,200 1,113 Climbing Salt Lake Center
03:35PM 46.1822 -113.2544 131° Southeast 385 443 24,300 774 Climbing Salt Lake Center
03:37PM 46.1078 -113.1358 132° Southeast 398 458 24,800 339 Climbing Salt Lake Center
03:38PM 46.0339 -113.0083 130° Southeast 413 475 25,000 97 Climbing Salt Lake Center
03:39PM 45.9533 -112.8781 132° Southeast 432 497 25,000  Level Salt Lake Center
03:40PM 45.8578 -112.7156 130° Southeast 444 511 25,000  Level Salt Lake Center
03:41PM 45.7756 -112.5789 131° Southeast 451 519 25,000  Level Salt Lake Center
03:42PM 45.6931 -112.4447 131° Southeast 452 520 25,000  Level Salt Lake Center
03:43PM 45.6108 -112.3089 131° Southeast 453 521 25,000  Level Salt Lake Center
03:44PM 45.5278 -112.1731 131° Southeast 455 524 25,000  Level Salt Lake Center
03:45PM 45.4439 -112.0383 132° Southeast 456 525 25,000  Level Salt Lake Center
03:46PM 45.3453 -111.8781 131° Southeast 454 522 25,000  Level Salt Lake Center
03:47PM 45.2614 -111.7450 132° Southeast 454 522 25,000  Level Salt Lake Center
03:48PM 45.1786 -111.6117 131° Southeast 454 522 25,000  Level Salt Lake Center
03:49PM 45.0950 -111.4800 132° Southeast 453 521 25,000  Level Salt Lake Center
03:50PM 45.0119 -111.3481 132° Southeast 452 520 25,000  Level Salt Lake Center
03:51PM 44.9283 -111.2189 132° Southeast 450 518 25,000  Level Salt Lake Center
03:52PM 44.8286 -111.0614 132° Southeast 450 518 25,000  Level Salt Lake Center
03:53PM 44.7442 -110.9322 133° Southeast 451 519 25,000  Level Salt Lake Center
03:54PM 44.6614 -110.8033 132° Southeast 448 516 25,000  Level Salt Lake Center
03:55PM 44.5794 -110.6711 131° Southeast 448 516 25,000  Level Salt Lake Center
03:56PM 44.4969 -110.5494 134° Southeast 445 512 25,000  Level Salt Lake Center
03:57PM 44.4133 -110.4214 132° Southeast 443 510 25,000  Level Salt Lake Center
03:58PM 44.3128 -110.2667 132° Southeast 443 510 25,000  Level Salt Lake Center
03:59PM 44.2281 -110.1403 133° Southeast 445 512 25,000 -49 Level Salt Lake Center
04:00PM 44.1439 -110.0139 133° Southeast 443 510 24,900  Descending Salt Lake Center
04:01PM 44.0603 -109.8886 133° Southeast 439 505 25,000 48 Climbing Salt Lake Center
04:02PM 43.9756 -109.7625 133° Southeast 444 511 25,000 -48 Level Salt Lake Center
04:03PM 43.8908 -109.6369 133° Southeast 443 510 24,900  Descending Salt Lake Center
04:04PM 43.8069 -109.5128 133° Southeast 440 506 25,000 48 Climbing Salt Lake Center
04:05PM 43.7136 -109.3767 133° Southeast 432 497 25,000  Level Salt Lake Center
04:06PM 43.6297 -109.2567 134° Southeast 434 499 25,000  Level Salt Lake Center
04:07PM 43.5461 -109.1322 133° Southeast 440 506 25,000  Level Salt Lake Center
04:08PM 43.4619 -109.0111 134° Southeast 441 507 25,000  Level Salt Lake Center
04:10PM 43.3783 -108.8922 134° Southeast 437 503 25,000  Level Salt Lake Center
04:11PM 43.2775 -108.7464 133° Southeast 438 504 25,000  Level Salt Lake Center
04:12PM 43.1936 -108.6250 133° Southeast 441 507 25,000  Level Salt Lake Center
04:13PM 43.1097 -108.5064 134° Southeast 437 503 25,000  Level Salt Lake Center
04:14PM 43.0264 -108.3861 133° Southeast 438 504 25,000  Level Salt Lake Center
04:15PM 42.9339 -108.2544 134° Southeast 435 501 25,000  Level Salt Lake Center
04:16PM 42.8528 -108.1403 134° Southeast 437 503 25,000  Level Salt Lake Center
04:17PM 42.7583 -108.0075 134° Southeast 436 502 25,000  Level Salt Lake Center
04:18PM 42.6781 -107.8944 134° Southeast 434 499 25,000  Level Salt Lake Center
04:19PM 42.5819 -107.7633 135° Southeast 434 499 25,000  Level Salt Lake Center
04:20PM 42.5011 -107.6514 134° Southeast 434 499 25,000  Level Salt Lake Center
04:21PM 42.4208 -107.5386 134° Southeast 435 501 25,000  Level Salt Lake Center
04:22PM 42.3236 -107.4147 137° Southeast 430 495 25,000  Level Salt Lake Center
04:23PM 42.2392 -107.3108 138° Southeast 428 493 25,000  Level Salt Lake Center
04:24PM 42.1408 -107.1903 138° Southeast 429 494 25,000  Level Salt Lake Center
04:25PM 42.0578 -107.0883 138° Southeast 424 488 25,000  Level Salt Lake Center
04:26PM 41.9569 -106.9656 138° Southeast 435 501 25,000  Level Salt Lake Center
04:27PM 41.8703 -106.8608 138° Southeast 436 502 25,000  Level Salt Lake Center
04:28PM 41.7736 -106.7425 138° Southeast 423 487 25,000  Level Salt Lake Center
04:29PM 41.6900 -106.6431 138° Southeast 435 501 25,000  Level Salt Lake Center
04:30PM 41.5881 -106.5225 138° Southeast 439 505 25,000  Level Salt Lake Center
04:31PM 41.4767 -106.3867 138° Southeast 431 496 25,000  Level Denver Center
04:32PM 41.4050 -106.3022 139° Southeast 430 495 25,000  Level Denver Center
04:33PM 41.2922 -106.1672 138° Southeast 430 495 25,000  Level Denver Center
04:35PM 41.2058 -106.0683 139° Southeast 428 493 25,000  Level Denver Center
04:36PM 41.1061 -105.9494 138° Southeast 430 495 25,000  Level Denver Center
04:37PM 41.0217 -105.8503 138° Southeast 428 493 25,000  Level Denver Center
04:38PM 40.9403 -105.7569 139° Southeast 427 491 25,000  Level Denver Center
04:39PM 40.8356 -105.6333 138° Southeast 421 484 25,000 -726 Level Denver Center
04:40PM 40.7447 -105.5306 139° Southeast 429 494 23,500 -1,645 Descending Denver Center
04:41PM 40.6528 -105.4225 138° Southeast 439 505 21,600 -1,839 Descending Denver Center
04:42PM 40.5658 -105.3239 139° Southeast 420 483 19,700 -2,129 Descending Denver Center
04:43PM 40.4792 -105.2231 138° Southeast 385 443 17,200 -2,419 Descending Denver Center
04:44PM 40.4011 -105.1339 139° Southeast 361 415 14,700 -2,032 Descending Denver Center
04:45PM 40.3381 -105.0319 129° Southeast 338 389 13,000 -919 Descending Denver Center
04:46PM 40.3156 -104.9497 110° East 289 333 12,800 -726 Descending Denver Center
04:47PM 40.2786 -104.8528 117° Southeast 245 282 11,500 -1,306 Descending Denver Center
04:48PM 40.2453 -104.7742 119° Southeast 245 282 10,100 -871 Descending Denver Center
04:49PM 40.2064 -104.7158 131° Southeast 217 250 9,700 -387 Descending Denver Center
04:50PM 40.1467 -104.6928 164° South 205 236 9,300 -290 Descending Denver Center
04:51PM 40.1006 -104.6933 181° South 196 226 9,100 -581 Descending Denver Center
04:52PM 40.0336 -104.6944 181° South 196 226 8,100 -971 Descending Denver Center
04:53PM 39.9797 -104.6956 181° South 194 223 6,900 -1,015 Descending Denver Center
04:54PM 39.9214 -104.6958 180° South 169 194 5,800 -774 Descending Denver Center
04:55PM 39.8789 -104.6967 181° South 158 182 5,300 -484 Descending Denver Center

Login

Don't have an account? Register now (free) for customized features, flight alerts, and more!